Location: Helion Bumpstead
(52.0500°N, 0.4000°E)
Time: 19:50:33
(UTC+00:00)

Cosmos 2221 Rocket - Pass Details

Date: 15 November 2025
Orbit: 614 x 643 km, 82.5° (Epoch: 14 December)

Event Time Altitude Azimuth Distance (km) Brightness Sun altitude
Rises 05:54:19 0° 186° (S) 2,939 7.1 -12.8°
Reaches altitude 10° 05:56:33 10° 185° (S) 2,035 6.3 -12.5°
Maximum altitude 06:01:04 81° 100° (E) 659 3.8 -11.8°
Drops below altitude 10° 06:05:38 10° 13° (NNE) 2,050 6.2 -11.2°
Sets 06:07:54 0° 12° (NNE) 2,962 7.0 -10.8°
